Location: Colonia Mina de C?rbuni
(46.1667°N, 22.7167°E)
Time: 22:16:27
(UTC+00:00)

Tiros 1 - Pass Details

Date: 23 April 2024
Orbit: 624 x 657 km, 48.4° (Epoch: 28 May)

Event Time Altitude Azimuth Distance (km) Brightness Sun altitude
Rises 03:04:21 0° 289° (WNW) 2,913 10.1 -4.7°
Reaches altitude 10° 03:06:46 10° 282° (WNW) 2,000 9.2 -4.3°
Maximum altitude 03:11:05 42° 212° (SSW) 896 7.6 -3.6°
Drops below altitude 10° 03:15:23 10° 142° (SE) 1,987 9.9 -2.9°
Sets 03:17:46 0° 135° (SE) 2,891 10.8 -2.5°
